Regional Weather Roundup
Issued by NWS

Home | Current Version | Previous Version | Graphics & Text | Print | Product List | Glossary On
Versions: 1 2 3 4 5 6 7 8 9 10 11 12 13 14 15 16 17 18 19 20 21 22 23 24 25 26 27 28 29 30 31 32 33 34 35 36 37 38 39 40 41 42 43 44 45 46 47 48 49 50
357
ASUS43 KOAX 180210
RWRNE

WEATHER ROUNDUP FOR NEBRASKA
NATIONAL WEATHER SERVICE OMAHA NE
800 PM CST FRI NOV 17 2017

NOTES: SATELLITE DATA IS BEING USED TO AUGMENT CLOUD COVER ABOVE
       12000 FEET.
       "FAIR" INDICATES FEW OR NO CLOUDS BELOW 12,000 FEET WITH NO
       SIGNIFICANT WEATHER AND/OR OBSTRUCTIONS TO VISIBILITY.


NEZ001>004-019>022-054>056-180300-
NEBRASKA PANHANDLE

CITY           SKY/WX    TMP DP  RH WIND       PRES   REMARKS
SCOTTSBLUFF    CLOUDY    45  35  68 NW14      29.71R
ALLIANCE       CLOUDY    38  37  97 CALM      29.67R
CHADRON        LGT RAIN  38  35  89 NW3       29.74R
GORDON         DRIZZLE   38  34  84 NE6       29.70R WCI  34
KIMBALL        CLOUDY    40  37  86 NW9       29.69F WCI  35
SIDNEY         LGT RAIN  42  38  85 N6        29.70F
$$

NEZ057>060-069>072-079>082-180300-
SOUTHWEST NEBRASKA

CITY           SKY/WX    TMP DP  RH WIND       PRES   REMARKS
NORTH PLATTE   PTCLDY    44  34  67 N13       29.64S
LEXINGTON      CLOUDY    46  32  57 N10       29.63R
MCCOOK         CLOUDY    46  33  60 N14       29.61R
OGALLALA       LGT RAIN  43  39  85 W3        29.70R
$$

NEZ005>010-023>029-035>040-094-180300-
NORTH CENTRAL NEBRASKA

CITY           SKY/WX    TMP DP  RH WIND       PRES   REMARKS
VALENTINE      LGT RAIN  42  34  73 N9        29.70R
AINSWORTH      CLOUDY    39  37  90 N7        29.69S WCI  34
BROKEN BOW     CLOUDY    44  35  70 N18G30    29.65R
O`NEILL        LGT RAIN  41  39  93 NW7       29.69R
ORD            CLOUDY    44  36  73 N15G26    29.64R
THEDFORD       LGT RAIN  40  38  93 N7        29.70S
$$

NEZ041-046>049-061>064-073>077-083>087-180300-
SOUTH CENTRAL NEBRASKA

CITY           SKY/WX    TMP DP  RH WIND       PRES   REMARKS
GRAND ISLAND   MOCLDY    45  36  70 N12       29.60F
AURORA         PTCLDY    45  35  67 N17       29.59R
HASTINGS       CLEAR     46  34  62 N13       29.58R
HEBRON         PTCLDY    51  38  61 N7        29.54F
HOLDREGE       MOCLDY    44  35  69 N15       29.60R
KEARNEY        CLOUDY    44  34  67 N9        29.61R
YORK           CLOUDY    45  37  76 N18       29.57F
$$

NEZ011>018-030>034-042>045-180300-
NORTHEAST NEBRASKA

CITY           SKY/WX    TMP DP  RH WIND       PRES   REMARKS
NORFOLK        CLOUDY    43  37  79 N12       29.61R
ALBION         CLOUDY    44  36  74 N14       29.63S
BLAIR          PTCLDY    49  40  69 N12       29.55F
COLUMBUS       CLOUDY    46  37  71 NW8       29.62R
FREMONT        MOCLDY    47  38  70 N6        29.58R
TEKAMAH        MOCLDY    47  38  71 NW6       29.58S
WAYNE          MOCLDY    44  39  83 N10       29.61S
$$

NEZ050>053-065>068-078-088>093-180300-
SOUTHEAST NEBRASKA

CITY           SKY/WX    TMP DP  RH WIND       PRES   REMARKS
LINCOLN        CLOUDY    48  36  63 N14       29.57R
OMAHA EPPLEY   MOCLDY    48  40  73 N9        29.55S
BEATRICE       CLOUDY    55  46  72 NE10      29.53S
FALLS CITY     MOCLDY    55  54  96 E8        29.48S FOG
NEBRASKA CITY  CLOUDY    57  57 100 N13       29.52F FOG
PLATTSMOUTH    CLOUDY    56  54  94 N7        29.54S FOG
$$

NEZ044-045-051>053-067-180300-
OMAHA AREA

CITY           SKY/WX    TMP DP  RH WIND       PRES   REMARKS
OMAHA EPPLEY   MOCLDY    48  40  73 N9        29.55S
BLAIR          PTCLDY    49  40  69 N12       29.55F
FREMONT        MOCLDY    47  38  70 N6        29.58R
MILLARD        PTCLDY    53  42  66 N7        29.56R
OFFUTT AFB     CLOUDY    53  45  74 N9        29.54S
PLATTSMOUTH    CLOUDY    56  54  94 N7        29.54S FOG
WAHOO          FAIR      46  37  71 N10       29.57R
$$




USA.gov is the U.S. government's official web portal to all federal, state and local government web resources and services.